This demonstration page uses our WeatherBlox Daily Observations layout. Learn more.

Left ArrowRight Arrow

34.74481, -87.66753

Hourly Observations for October 22, 2019

Temp ( °F °C ) Dew Point ( °F °C ) Humidity (%) Winds ( mph kmh ) Pressure ( in mb ) Visibility ( mi km ) Precip ( " mm )
12:24 am 00:24 Cloudy 63 17.2 61 16.1 93 93 W 6 9 29.88 1012 10 16 0.00 0.00
12:36 am 00:36 Cloudy 63 17.2 61 16.1 93 93 W 5 7 29.88 1012 10 16 0.00 0.00
12:43 am 00:43 Cloudy 63 17.2 61 16.1 93 93 W 7 11 29.88 1012 10 16 0.00 0.00
12:53 am 00:53 Cloudy 63 17.2 60 15.6 90 90 W 10 17 29.91 1013 10 16 0.00 0.00
1:04 am 01:04 Cloudy 63 17.2 60 15.6 90 90 W 15 24 29.88 1012 10 16 0.00 0.00
1:13 am 01:13 Cloudy 63 17.2 60 15.6 90 90 WNW 13 20 29.91 1013 10 16 0.00 0.00
1:53 am 01:53 Cloudy 63 17.2 57 13.9 81 81 WNW 12 19 29.92 1013 10 16 0.00 0.00
2:53 am 02:53 Mostly Cloudy 60 15.6 56 13.3 86 86 WNW 9 15 29.92 1013 10 16 0.00 0.00
3:53 am 03:53 Clear 57 13.9 54 12.2 90 90 W 7 11 29.93 1014 10 16 0.00 0.00
4:53 am 04:53 Clear 54 12.2 52 11.1 93 93 WSW 6 9 29.95 1014 10 16 0.00 0.00
5:53 am 05:53 Clear 52 11.1 50 10 93 93 WSW 5 7 29.97 1015 10 16 0.00 0.00
6:53 am 06:53 Clear 52 11.1 49 9.4 89 89 W 3 6 29.98 1015 10 16 0.00 0.00
7:53 am 07:53 Sunny 54 12.2 50 10 87 87 Calm 29.99 1016 10 16 0.00 0.00
8:53 am 08:53 Sunny 58 14.4 48 8.9 70 70 W 9 15 30.01 1016 10 16 0.00 0.00
9:53 am 09:53 Sunny 61 16.1 45 7.2 56 56 W 14 22 30.02 1017 10 16 0.00 0.00
10:53 am 10:53 Sunny 64 17.8 42 5.6 45 45 W 13 20 30.04 1017 10 16 0.00 0.00
11:53 am 11:53 Sunny 65 18.3 41 5 42 42 W 12 19 30.03 1017 10 16 0.00 0.00
12:53 pm 12:53 Sunny 66 18.9 42 5.6 42 42 WNW 15 24 30.02 1017 10 16 0.00 0.00
1:53 pm 13:53 Sunny 68 20 43 6.1 40 40 W 15 24 30.01 1016 10 16 0.00 0.00
2:53 pm 14:53 Sunny 68 20 41 5 38 38 W 18 30 30.01 1016 10 16 0.00 0.00
3:53 pm 15:53 Mostly Sunny 68 20 41 5 38 38 WNW 14 22 30.01 1016 10 16 0.00 0.00
4:53 pm 16:53 Mostly Sunny 66 18.9 41 5 40 40 W 16 26 30.01 1016 10 16 0.00 0.00
5:53 pm 17:53 Mostly Sunny 63 17.2 39 3.9 41 41 W 14 22 30.03 1017 10 16 0.00 0.00
6:53 pm 18:53 Clear 59 15 39 3.9 48 48 WNW 9 15 30.05 1018 10 16 0.00 0.00
7:53 pm 19:53 Clear 56 13.3 39 3.9 53 53 W 8 13 30.09 1019 10 16 0.00 0.00
8:53 pm 20:53 Clear 54 12.2 38 3.3 55 55 Calm 30.10 1019 10 16 0.00 0.00
9:53 pm 21:53 Clear 50 10 39 3.9 66 66 Calm 30.12 1020 10 16 0.00 0.00
10:53 pm 22:53 Clear 47 8.3 41 5 80 80 Calm 30.12 1020 10 16 0.00 0.00
11:53 pm 23:53 Clear 45 7.2 42 5.6 90 90 Calm 30.12 1020 10 16 0.00 0.00

Powered by AerisWeather